Regional Weather Roundup
Issued by NWS

Home | Current Version | Previous Version | Text Only | Print | Product List | Glossary On
Versions: 1 2 3 4 5 6 7 8 9 10 11 12 13 14 15 16 17 18 19 20 21 22 23 24 25 26 27 28 29 30 31 32 33 34 35 36 37 38 39 40 41 42 43 44 45 46 47 48 49 50
000
ASUS43 KLMK 210110
RWRKY
KENTUCKY REGIONAL WEATHER ROUNDUP
NATIONAL WEATHER SERVICE LOUISVILLE KY
800 PM EST SAT DEC 20 2014

NOTE "FAIR" INDICATES FEW OR NO CLOUDS BELOW 12,000 FEET
WITH NO SIGNIFICANT WEATHER AND/OR OBSTRUCTIONS TO VISIBILITY.

KYZ001>023-026-027-061>063-070>075-210200-
WESTERN AND SOUTH CENTRAL KENTUCKY

CITY           SKY/WX    TMP DP  RH WIND       PRES   REMARKS
PADUCAH        CLEAR     31  27  85 CALM      30.27R
HENDERSON      CLEAR     27  21  80 CALM      30.29S
OWENSBORO      CLEAR     32  26  78 CALM      30.30R
HOPKINSVILLE   CLEAR     33  27  79 N3        30.27R
BOWLING GREEN  CLEAR     31  25  78 CALM      30.28R
GLASGOW        CLEAR     30  26  83 CALM      30.27R
$$

KYZ024-025-028>034-038-045-046-053-210200-
NORTH CENTRAL KENTUCKY

CITY           SKY/WX    TMP DP  RH WIND       PRES   REMARKS
LOUISVILLE/SDF MOCLDY    32  25  75 N5        30.30R WCI  27
LOUISVILLE/LOU CLEAR     32  25  75 N3        30.30R
FORT KNOX      CLEAR     28  24  83 N5        30.27R WCI  23
$$

KYZ035>037-039>044-047>052-055>060-089>105-210200-
NORTHEAST KENTUCKY

CITY           SKY/WX    TMP DP  RH WIND       PRES   REMARKS
LEXINGTON      PTCLDY    28  25  88 NE7       30.28R WCI  21
COVINGTON      CLOUDY    32  25  75 N3        30.28S
FRANKFORT      CLOUDY    33  25  72 CALM      30.28R
$$

KYZ054-064>069-076>088-106>120-210200-
SOUTHEAST KENTUCKY

CITY           SKY/WX    TMP DP  RH WIND       PRES   REMARKS
JACKSON        MOCLDY    32  24  72 CALM      30.24R
LONDON         CLEAR     34  25  69 N5        30.25R WCI  30
SOMERSET       CLEAR     32  27  80 CALM      30.28S
MIDDLESBORO    CLOUDY    40  30  67 CALM      30.24S
MONTICELLO     CLEAR     25  22  88 CALM      30.29R
$$



USA.gov is the U.S. government's official web portal to all federal, state and local government web resources and services.